This demonstration page uses our WeatherBlox Daily Observations layout. Learn more.

39.92423, -83.80882

Hourly Observations for September 16, 2017

Temp ( °F °C ) Dew Point ( °F °C ) Humidity (%) Winds ( mph kmh ) Pressure ( in mb ) Visibility ( mi km ) Precip ( " mm )
12:44 am 00:44 Clear with Mist and Fog 59 15 57 14 94 94 SE 3 6 30.15 1021 1.5 2.414016 0 0
12:46 am 00:46 Clear with Mist and Fog 57 14 57 14 100 100 Calm 30.15 1021 0.75 1.207008 0 0
12:52 am 00:52 Clear with Fog 57 14 57 14 100 100 E 3 6 30.15 1021 0.25 0.402336 0 0
12:56 am 00:56 Clear with Fog 57 13.9 57 13.9 100 100 ESE 3 6 30.15 1021 0.5 0.804672 0 0
12:59 am 00:59 Clear with Mist and Fog 57 14 57 14 100 100 ESE 3 6 30.15 1021 1 1.609344 0 0
1:02 am 01:02 Clear with Mist and Fog 57 14 57 14 100 100 ESE 3 6 30.15 1021 2 3.218688 0 0
1:10 am 01:10 Clear with Mist and Fog 57 14 57 14 100 100 ESE 3 6 30.15 1021 3 4.828032 0 0
1:13 am 01:13 Clear with Mist and Fog 57 14 57 14 100 100 ESE 3 6 30.15 1021 1 1.609344 0 0
1:20 am 01:20 Clear with Fog 57 14 57 14 100 100 Calm 30.15 1021 0.5 0.804672 0 0
1:28 am 01:28 Mostly Cloudy with Fog 57 14 57 14 100 100 Calm 30.15 1021 0.25 0.402336 0 0
1:56 am 01:56 Mostly Cloudy with Fog 56 13.3 55 12.8 97 97 E 3 6 30.12 1020 0.25 0.402336 0 0
2:42 am 02:42 Mostly Cloudy with Mist and Fog 55 13 55 13 100 100 E 3 6 30.15 1021 0.75 1.207008 0 0
2:44 am 02:44 Partly Cloudy with Mist and Fog 57 14 57 14 100 100 Calm 30.15 1021 1.25 2.01168 0 0
2:49 am 02:49 Partly Cloudy with Mist and Fog 57 14 57 14 100 100 Calm 30.15 1021 3 4.828032 0 0
2:51 am 02:51 Partly Cloudy with Mist and Fog 57 14 57 14 100 100 Calm 30.15 1021 1.25 2.01168 0 0
2:53 am 02:53 Mostly Cloudy with Fog 57 14 57 14 100 100 Calm 30.15 1021 0.5 0.804672 0 0
2:56 am 02:56 Mostly Cloudy with Fog 57 13.9 57 13.9 100 100 Calm 30.12 1020 0.25 0.402336 0 0
3:56 am 03:56 Cloudy with Fog 55 12.8 54 12.2 96 96 ENE 3 6 30.15 1021 0.25 0.402336 0 0
4:56 am 04:56 Cloudy with Fog 56 13.3 55 12.8 97 97 ESE 3 6 30.15 1021 0.25 0.402336 0 0
5:56 am 05:56 Cloudy with Fog 53 11.7 52 11.1 96 96 ENE 3 6 30.15 1021 0.25 0.402336 0 0
6:56 am 06:56 Cloudy with Fog 53 11.7 53 11.7 100 100 Calm 30.15 1021 0.25 0.402336 0 0
8:47 am 08:47 Cloudy with Mist and Fog 57 14 57 14 100 100 E 3 6 30.21 1023 0.75 1.207008 0 0
8:52 am 08:52 Cloudy with Mist and Fog 59 15 59 15 100 100 E 5 7 30.21 1023 1.25 2.01168 0 0
8:56 am 08:56 Mostly Cloudy with Mist and Fog 59 15 59 15 100 100 E 5 7 30.18 1022 2.5 4.02336 0 0
9:06 am 09:06 Partly Cloudy with Mist and Fog 61 16 61 16 100 100 ESE 3 6 30.21 1023 3 4.828032 0 0
9:56 am 09:56 Sunny 66 18.9 65 18.3 96 96 ESE 5 7 30.18 1022 10 16.09344 0 0
10:56 am 10:56 Sunny 71 21.7 64 17.8 79 79 ESE 8 13 30.18 1022 10 16.09344 0 0
11:56 am 11:56 Sunny 73 22.8 64 17.8 74 74 E 6 9 30.18 1022 10 16.09344 0 0
12:56 pm 12:56 Sunny 76 24.4 62 16.7 62 62 N 3 6 30.18 1022 10 16.09344 0 0
1:56 pm 13:56 Partly Cloudy 77 25 61 16.1 58 58 SSE 5 7 30.15 1021 10 16.09344 0 0
2:56 pm 14:56 Cloudy 78 25.6 59 15 52 52 E 7 11 30.15 1021 10 16.09344 0 0
3:56 pm 15:56 Mostly Sunny 79 26.1 60 15.6 52 52 SE 5 7 30.15 1021 10 16.09344 0 0
4:56 pm 16:56 Mostly Cloudy 80 26.7 59 15 49 49 SW 3 6 30.12 1020 10 16.09344 0 0
5:56 pm 17:56 Mostly Cloudy 78 25.6 60 15.6 54 54 ENE 7 11 30.12 1020 10 16.09344 0 0
6:56 pm 18:56 Sunny 75 23.9 60 15.6 60 60 E 6 9 30.12 1020 10 16.09344 0 0
7:56 pm 19:56 Clear 70 21.1 60 15.6 71 71 ESE 5 7 30.12 1020 10 16.09344 0 0
8:56 pm 20:56 Clear 66 18.9 60 15.6 81 81 ESE 3 6 30.12 1020 10 16.09344 0 0
9:56 pm 21:56 Clear 63 17.2 59 15 87 87 Calm 30.12 1020 10 16.09344 0 0
10:56 pm 22:56 Clear 61 16.1 58 14.4 90 90 Calm 30.12 1020 10 16.09344 0 0
11:56 pm 23:56 Clear 59 15 58 14.4 96 96 Calm 30.12 1020 10 16.09344 0 0

Powered by AerisWeather